Temp_Advection
nan nan nan nan nan nan nan nan nan nan nan nan nan nan nan nan nan nan nan nan nan nan nan nan nan nan nan nan nan nan nan nan nan nan nan nan nan nan nan nan nan nan nan
nan 2 1 1 1 1 1 0 1 1 0 0 1 1 0 0 0 0 0 0 0 0 0 0 0 0 0 0 0 0 -0 -0 -0 -0 -0 -0 -0 -0 -0 -0 -0 -0 nan
nan -0 -0 -0 0 0 1 1 2 0 -0 1 0 0 0 0 1 1 0 0 0 0 0 0 0 0 0 0 0 0 0 -0 -0 -0 -0 -0 -0 -0 -0 -0 -0 -0 nan
nan 0 -0 -1 -0 1 2 2 1 0 1 0 0 1 0 1 1 0 0 0 0 0 0 0 0 0 0 0 0 0 0 -0 -0 -0 -0 -0 -0 -0 -0 -0 -0 -0 nan
nan -0 -1 1 1 1 2 2 1 2 1 1 2 1 1 1 0 0 1 0 1 0 0 0 0 0 0 0 0 0 0 0 -0 -0 -0 -0 -0 -0 -0 -0 -0 -0 nan
nan -0 1 2 1 1 2 1 2 1 1 1 1 1 1 1 1 1 0 1 1 1 0 0 0 0 0 0 0 0 0 -0 -0 -0 -0 -0 -0 -0 -0 -0 -0 -1 nan
nan 1 0 -0 -1 1 2 2 1 2 2 1 0 1 1 1 2 1 0 1 1 1 0 0 0 0 0 0 0 0 0 -0 -0 -0 -0 -0 -0 -0 -0 -0 -0 -1 nan
nan 1 -0 -0 1 2 2 2 2 3 2 1 1 1 1 2 1 0 1 1 1 0 1 0 0 0 0 0 0 0 0 -0 -0 -0 -0 -0 -0 -0 -0 -1 -0 -0 nan
nan 1 0 1 2 3 3 2 2 2 2 1 2 2 2 3 -1 0 1 0 -0 0 1 0 0 0 0 0 0 0 0 -0 -0 -0 -0 -0 -0 -0 -0 -0 -0 -1 nan
nan 1 2 2 2 3 3 3 3 3 2 1 2 2 2 1 -0 1 1 0 -0 0 0 0 0 0 0 0 0 -0 0 0 0 -0 -0 -0 -0 -0 -0 -0 -0 -0 nan
nan 1 1 1 2 2 3 3 3 3 1 -0 1 1 2 -0 1 1 1 1 1 0 -0 0 1 0 0 0 -0 0 0 0 0 0 -0 -0 -0 -0 -0 -0 -0 -0 nan
nan 1 1 2 2 2 2 2 2 -0 -1 0 1 1 1 0 1 0 1 1 1 1 1 1 1 0 0 0 0 0 0 0 0 0 0 -0 -0 -0 -0 -0 -0 -0 nan
nan 1 1 2 2 2 1 0 -1 -1 0 2 1 1 -0 0 0 1 2 1 1 1 1 1 1 1 0 0 0 0 0 0 0 0 0 -0 -0 -0 -0 -0 -0 -0 nan
nan 1 1 1 1 1 1 -0 -1 0 0 0 -1 -1 -1 -1 -1 0 1 0 0 1 1 1 1 1 0 0 1 0 0 0 0 0 0 0 -0 -0 -0 -0 -0 -0 nan
nan 1 1 1 1 1 0 1 1 -0 0 -0 -1 -1 -1 -2 -2 0 -0 -1 -0 1 1 0 0 -0 0 1 0 0 0 0 0 0 0 0 0 -0 -0 -0 -0 -0 nan
nan 0 0 0 0 -0 0 -0 -0 0 1 0 0 -0 -0 -1 1 0 -0 -0 1 1 0 -0 -0 -0 0 1 0 0 0 0 0 0 0 0 0 0 0 -0 -0 -0 nan
nan -0 -0 -0 -0 -0 -1 -1 -1 0 0 1 1 1 0 1 1 0 0 2 1 1 -0 -0 -0 0 1 0 0 0 0 0 0 0 0 0 0 0 0 0 -0 -0 nan
nan -0 -0 -0 -0 -0 -1 -0 -0 -0 1 0 0 1 1 1 1 1 1 1 0 -0 -0 -0 0 1 1 0 0 0 0 0 0 0 0 0 0 0 0 0 -0 -0 nan
nan 0 -0 -0 -0 -0 -0 -0 0 0 -0 -1 -0 0 1 1 1 1 1 -0 -0 -0 -0 -0 0 1 1 0 0 0 0 0 0 0 0 0 0 0 0 0 0 -0 nan
nan 0 -0 0 -0 -0 0 -0 -0 -0 -0 0 -0 -0 -0 0 0 1 0 0 0 -1 -0 1 0 0 1 0 0 0 0 0 0 0 0 0 0 1 0 0 0 0 nan
nan 0 0 -0 0 0 -0 -0 0 0 0 1 0 0 -0 0 -0 -1 -0 -1 -1 -0 1 1 0 1 1 0 0 0 0 0 0 0 0 0 0 1 1 0 0 0 nan
nan 0 1 1 0 0 1 1 1 1 1 1 0 0 1 0 -0 -0 -0 -1 -0 1 1 0 1 1 1 0 0 1 1 1 0 0 0 0 1 1 1 0 0 0 nan
nan 0 1 1 1 1 1 0 0 0 0 -0 -0 0 0 -0 -0 -0 -0 0 1 1 1 1 1 1 0 0 1 1 1 1 1 0 0 1 1 0 0 0 0 0 nan
nan 0 1 1 0 0 0 0 0 0 -0 -0 -0 -0 -0 -0 -0 -0 0 0 1 1 1 1 1 0 0 1 1 1 1 0 0 0 1 0 0 0 0 0 0 0 nan
nan 0 -0 -0 -0 0 1 0 0 0 0 -0 -0 0 0 -0 -0 0 0 1 1 1 1 1 0 1 1 1 1 1 0 0 1 1 0 0 0 0 0 0 0 0 nan
nan nan nan nan nan nan nan nan nan nan nan nan nan nan nan nan nan nan nan nan nan nan nan nan nan nan nan nan nan nan nan nan nan nan nan nan nan nan nan nan nan nan nan
Wind_Speed
45 51 52 51 46 42 37 35 34 38 37 33 30 28 26 23 21 19 16 14 13 12 11 10 10 9 7 6 4 3 3 1 4 1 3 5 7 7 8 9 9 9 11
40 44 47 48 44 41 37 37 38 40 37 31 29 28 26 24 20 18 17 16 14 13 12 12 11 10 9 6 4 3 3 2 3 3 3 4 5 6 8 9 10 10 11
38 43 45 46 40 34 39 36 39 42 36 33 31 28 28 24 23 20 18 16 15 14 14 13 12 11 8 7 4 3 3 3 3 3 2 4 5 7 8 10 12 11 11
37 39 41 46 37 31 37 38 42 40 39 36 33 31 28 26 23 21 20 19 18 17 16 15 13 11 9 7 5 4 4 4 3 4 3 4 6 7 8 10 11 11 10
36 36 38 43 41 38 35 41 40 41 41 37 36 32 29 27 26 22 22 20 19 19 18 17 15 12 9 6 5 5 4 3 4 3 3 5 7 8 11 13 13 13 11
37 35 44 51 48 38 38 41 43 46 44 40 37 33 32 30 24 24 21 21 20 19 18 17 16 13 10 8 7 5 4 3 3 3 4 5 7 10 11 13 14 15 10
33 36 43 42 40 41 39 43 45 48 45 43 38 35 34 30 26 26 24 22 21 21 20 18 16 14 11 8 7 5 4 2 2 4 5 6 7 9 10 11 13 14 14
33 39 42 44 44 41 42 46 49 50 49 47 42 39 35 30 28 27 25 25 24 22 20 19 16 15 13 9 7 5 3 2 2 4 6 7 7 9 11 12 13 13 14
28 36 42 43 44 44 48 51 52 52 52 48 43 42 38 35 31 29 27 26 25 23 21 20 17 15 12 9 7 5 2 0 3 5 7 7 9 10 11 12 12 11 11
25 30 34 39 41 45 47 53 53 52 53 49 45 42 37 33 32 29 28 28 27 25 23 20 18 16 12 9 8 5 3 2 2 3 5 6 8 9 11 10 10 10 12
20 26 29 30 35 39 45 48 50 50 51 45 44 38 33 32 31 30 29 29 27 27 23 21 19 17 13 11 8 6 5 3 2 1 3 5 7 9 10 10 10 10 11
16 20 26 30 34 37 40 44 50 51 46 42 40 34 33 32 29 29 29 27 26 23 22 21 20 16 14 11 9 7 5 4 2 1 2 4 5 8 8 9 10 11 12
14 19 23 28 31 36 42 48 47 44 44 45 40 39 38 34 30 28 29 29 26 23 22 19 18 15 13 12 10 8 6 4 2 1 2 4 5 6 7 9 10 11 12
12 17 22 26 31 36 40 41 46 50 49 45 43 42 39 36 34 30 33 32 28 26 23 22 19 16 14 12 10 9 7 5 3 2 2 4 5 5 5 6 6 7 7
9 13 19 24 30 35 37 41 48 48 44 45 42 41 44 43 40 35 34 34 32 31 29 25 23 20 18 15 13 11 9 6 4 3 3 4 4 5 6 6 7 8 8
9 14 19 24 29 33 36 37 38 37 36 36 34 32 34 33 34 34 30 27 29 30 30 27 25 21 19 18 16 14 11 9 7 5 4 4 4 4 5 6 7 7 7
7 12 16 21 25 28 30 32 33 30 27 24 23 26 27 27 28 28 28 26 24 29 32 29 25 22 22 20 18 16 13 11 9 7 5 5 4 4 5 5 5 6 6
6 9 13 17 20 24 29 31 30 32 32 30 27 22 25 26 26 28 28 28 29 30 32 30 27 25 24 22 20 18 16 13 11 9 7 6 5 5 4 4 4 5 5
7 9 12 15 19 23 26 29 30 29 31 31 28 27 27 27 27 27 29 32 34 34 33 30 27 26 26 24 21 19 17 14 12 10 9 8 7 6 5 5 5 5 5
8 9 11 15 19 21 24 27 29 30 33 34 35 35 34 32 33 34 34 33 33 31 30 28 27 26 26 24 22 20 18 17 15 12 11 10 9 8 7 6 5 3 4
10 11 14 17 19 24 26 28 30 33 35 36 38 38 38 39 38 36 36 37 34 32 27 26 26 25 25 25 23 21 20 18 16 14 12 11 10 9 8 7 6 5 5
14 16 18 19 22 24 26 29 30 33 36 37 39 39 38 37 35 34 34 34 32 29 25 26 26 25 24 25 22 21 20 19 17 15 14 13 11 11 9 8 7 6 5
18 20 21 24 24 26 28 30 33 34 36 37 38 39 40 40 37 33 31 29 27 28 28 28 26 24 24 23 21 20 19 18 16 15 15 14 13 12 10 9 8 7 6
18 20 23 26 28 28 31 32 33 35 36 37 38 38 39 40 38 33 28 27 27 28 29 27 25 23 23 23 22 20 19 19 18 16 15 14 13 13 11 10 9 9 8
18 20 24 26 27 29 30 32 35 35 37 39 39 39 38 37 36 33 30 29 28 29 29 26 24 23 23 22 20 19 18 17 17 16 15 14 13 12 12 11 10 9 8
17 19 20 24 26 26 29 31 32 36 37 38 39 38 37 37 35 33 32 31 31 31 29 27 25 24 23 21 20 18 17 16 16 15 14 14 13 13 12 12 11 9 8
Wind_Direction
222 222 216 212 211 218 221 216 214 216 206 203 203 201 199 199 196 190 192 187 179 180 169 178 179 185 184 178 175 140 131 125 120 26 346 359 11 17 18 13 6 0 357
225 223 217 211 210 216 217 218 217 212 207 204 204 202 200 199 198 197 193 185 181 176 171 177 181 181 179 173 169 141 116 113 126 99 349 352 5 14 21 18 16 9 2
222 220 217 209 211 220 222 216 218 211 211 203 204 205 203 200 200 197 193 185 181 175 174 177 180 178 174 173 168 156 124 115 103 83 3 359 5 9 15 19 19 12 1
219 222 218 209 215 233 229 211 212 214 213 208 205 205 203 202 196 198 196 187 180 180 178 181 179 181 181 175 165 156 135 116 92 62 15 3 16 13 17 23 19 14 11
225 222 221 211 212 220 222 214 211 212 210 210 207 202 200 200 197 198 196 190 183 182 181 181 181 178 179 172 174 157 137 121 87 56 18 14 19 16 16 18 18 10 5
232 226 220 215 221 224 219 211 214 211 209 210 206 203 199 199 191 197 196 190 185 184 183 184 182 178 180 186 188 166 139 107 79 51 21 13 14 17 14 14 12 15 9
238 233 226 222 226 233 224 213 215 212 207 209 206 202 200 193 191 197 190 187 186 183 180 184 186 182 174 185 180 167 147 116 43 31 19 16 16 14 11 12 12 9 4
240 235 234 228 230 233 225 214 213 207 204 205 202 200 196 191 200 195 191 184 184 183 180 184 188 183 177 182 178 159 132 92 25 13 7 5 12 10 6 9 13 11 2
244 238 237 234 231 229 222 215 213 205 200 201 203 198 193 195 195 195 189 184 186 183 181 183 187 189 184 178 180 176 161 326 350 3 1 360 1 5 3 6 6 12 12
250 249 244 239 232 228 222 215 212 207 201 198 199 200 199 188 196 191 189 187 187 186 183 186 191 193 189 186 189 184 193 249 315 351 344 345 349 355 357 0 8 14 16
256 245 245 243 237 231 221 214 207 201 199 196 202 199 191 194 194 189 190 190 191 185 185 186 190 190 190 194 195 193 197 226 247 320 324 340 346 351 352 354 2 7 8
259 253 243 237 231 224 221 210 203 199 194 201 200 189 187 194 199 192 189 189 191 190 186 186 191 189 193 197 199 195 203 211 218 289 321 325 338 343 349 350 349 350 350
270 252 241 230 223 218 211 204 201 196 196 198 193 188 185 193 195 197 187 186 189 186 188 189 191 193 194 199 200 192 199 208 221 239 290 309 329 339 345 350 345 341 338
268 239 228 222 212 211 210 213 199 197 197 193 190 189 189 190 192 190 190 189 186 186 187 189 193 196 197 199 194 191 196 212 223 239 283 306 318 332 342 341 340 341 341
232 221 213 209 204 197 202 203 199 201 199 196 195 192 192 192 194 192 189 192 192 193 191 192 195 197 200 204 203 204 211 217 228 250 287 305 311 323 332 338 340 343 344
201 197 199 197 197 196 198 194 199 202 201 202 203 200 198 204 197 194 197 201 194 196 197 201 202 204 207 208 208 211 215 220 226 246 271 283 288 301 314 327 337 344 348
205 202 199 201 201 202 201 198 196 196 200 202 200 200 210 204 199 198 201 203 202 198 206 208 210 211 210 210 212 215 218 220 227 239 255 258 269 280 295 303 319 335 344
223 217 210 205 206 202 201 201 197 191 191 195 199 201 206 203 200 201 201 201 203 202 210 212 213 213 213 213 215 215 218 221 224 235 247 245 253 260 264 277 299 321 339
214 219 213 211 207 205 204 201 199 198 193 193 190 191 190 192 195 200 206 211 210 209 210 213 216 216 214 214 217 216 220 223 226 233 241 239 244 247 246 252 268 300 331
225 222 222 217 213 210 208 207 205 202 198 198 193 188 182 183 190 200 208 214 217 218 218 216 213 211 216 216 214 216 219 221 225 232 237 235 240 244 237 241 251 260 299
250 244 230 223 224 219 212 210 208 206 204 203 200 197 196 197 200 204 208 216 217 217 214 212 209 212 218 214 212 216 220 223 225 229 232 234 238 240 230 222 230 258 281
246 248 246 242 235 226 224 220 213 209 208 207 205 205 207 209 213 216 218 222 218 215 211 209 209 215 219 217 216 218 221 222 225 227 228 231 234 234 228 222 225 233 258
240 242 245 245 245 237 227 224 220 215 212 212 211 210 209 213 216 220 222 222 216 209 206 207 208 213 217 214 214 217 222 224 226 227 226 227 229 228 229 222 230 239 243
240 243 246 249 245 242 234 227 225 223 219 216 216 216 216 216 217 220 219 217 213 206 206 209 212 217 217 214 214 216 217 218 223 223 222 224 226 227 228 229 231 236 250
259 250 247 249 250 248 245 235 230 227 225 222 219 218 218 218 220 218 217 213 209 207 209 212 215 216 214 216 216 215 218 222 221 220 221 222 224 224 228 233 228 233 247
266 257 254 252 251 252 250 245 237 232 228 226 223 220 219 221 220 219 217 212 208 208 211 214 216 215 212 209 210 213 218 222 221 221 219 220 221 224 227 230 233 233 238
Height
1391 1398 1406 1413 1421 1430 1435 1438 1443 1454 1458 1462 1467 1472 1477 1482 1483 1481 1488 1491 1492 1497 1494 1501 1503 1507 1509 1511 1512 1508 1508 1512 1510 1510 1513 1510 1508 1506 1503 1501 1499 1496 1493
1389 1397 1403 1409 1416 1421 1427 1433 1443 1448 1456 1457 1464 1469 1474 1478 1481 1484 1483 1485 1488 1490 1492 1499 1503 1505 1508 1508 1509 1508 1507 1509 1509 1507 1511 1510 1507 1504 1501 1499 1497 1494 1491
1387 1393 1398 1405 1410 1417 1420 1427 1438 1449 1452 1449 1459 1465 1470 1472 1477 1481 1481 1481 1485 1488 1491 1495 1501 1503 1504 1505 1507 1507 1506 1506 1506 1505 1509 1509 1506 1503 1500 1497 1495 1492 1489
1381 1388 1394 1399 1405 1411 1416 1423 1434 1441 1444 1452 1453 1460 1464 1470 1471 1478 1479 1478 1478 1485 1486 1493 1497 1502 1505 1505 1503 1505 1505 1504 1504 1504 1507 1507 1504 1502 1499 1497 1495 1491 1489
1381 1381 1389 1395 1399 1401 1408 1417 1425 1433 1440 1443 1451 1453 1458 1464 1468 1471 1476 1478 1476 1481 1485 1489 1492 1497 1502 1503 1505 1503 1503 1503 1501 1502 1504 1505 1502 1499 1497 1495 1493 1490 1487
1381 1376 1382 1383 1390 1397 1401 1408 1416 1425 1431 1439 1445 1446 1451 1459 1461 1468 1471 1472 1476 1479 1483 1488 1490 1492 1497 1501 1504 1501 1501 1501 1500 1501 1503 1503 1500 1497 1495 1493 1491 1488 1487
1370 1374 1378 1378 1386 1393 1395 1401 1406 1412 1425 1433 1436 1442 1450 1450 1456 1461 1465 1467 1472 1477 1478 1485 1491 1491 1491 1500 1501 1500 1499 1499 1500 1500 1500 1500 1498 1496 1494 1492 1490 1487 1485
1363 1367 1372 1370 1375 1385 1391 1395 1399 1404 1413 1424 1429 1437 1440 1443 1452 1455 1460 1464 1471 1474 1475 1482 1490 1489 1489 1496 1498 1498 1497 1497 1497 1498 1499 1498 1496 1494 1492 1490 1488 1486 1483
1355 1358 1362 1363 1365 1373 1383 1388 1394 1395 1403 1416 1428 1432 1431 1435 1442 1449 1455 1462 1469 1471 1475 1478 1484 1489 1489 1492 1495 1495 1494 1496 1495 1495 1496 1495 1494 1492 1490 1489 1487 1486 1483
1353 1353 1355 1360 1359 1367 1373 1380 1386 1391 1400 1406 1421 1427 1424 1430 1436 1445 1452 1456 1463 1468 1471 1476 1481 1487 1489 1490 1492 1491 1493 1494 1494 1494 1495 1494 1492 1490 1489 1488 1486 1485 1483
1347 1348 1352 1351 1356 1363 1369 1373 1378 1386 1399 1409 1417 1417 1422 1431 1434 1441 1448 1453 1458 1463 1468 1473 1479 1483 1485 1488 1489 1488 1490 1491 1491 1492 1494 1492 1490 1488 1487 1486 1484 1483 1482
1341 1342 1344 1347 1353 1357 1363 1368 1375 1386 1396 1405 1413 1412 1420 1428 1432 1439 1445 1451 1459 1460 1463 1469 1476 1478 1482 1485 1486 1486 1488 1489 1488 1489 1491 1491 1488 1486 1485 1484 1483 1481 1480
1336 1338 1341 1344 1348 1353 1359 1365 1374 1384 1388 1396 1403 1408 1414 1422 1429 1435 1441 1448 1455 1459 1464 1467 1472 1474 1477 1482 1483 1483 1485 1487 1486 1486 1488 1488 1486 1485 1483 1482 1481 1480 1478
1336 1338 1340 1344 1348 1353 1359 1363 1368 1373 1379 1389 1397 1403 1410 1417 1424 1429 1437 1445 1450 1456 1460 1464 1467 1471 1474 1477 1480 1481 1481 1482 1483 1484 1484 1485 1484 1483 1482 1481 1480 1479 1478
1335 1338 1342 1346 1350 1354 1359 1361 1365 1371 1377 1383 1391 1397 1402 1409 1415 1423 1432 1438 1444 1450 1456 1459 1463 1466 1469 1472 1476 1477 1480 1479 1480 1481 1481 1481 1481 1481 1480 1479 1479 1478 1477
1338 1339 1342 1345 1349 1354 1359 1363 1368 1374 1380 1386 1392 1400 1405 1412 1417 1423 1429 1436 1442 1447 1451 1454 1458 1460 1464 1468 1471 1474 1475 1476 1476 1477 1477 1478 1478 1478 1478 1478 1477 1476 1475
1341 1342 1343 1346 1349 1352 1358 1363 1368 1376 1383 1390 1395 1399 1405 1410 1417 1421 1426 1431 1439 1443 1446 1450 1453 1456 1459 1463 1467 1469 1471 1471 1472 1473 1474 1474 1475 1475 1476 1475 1475 1474 1473
1341 1342 1344 1346 1348 1352 1357 1362 1366 1372 1378 1384 1390 1397 1403 1408 1414 1419 1424 1429 1433 1437 1441 1444 1447 1450 1454 1458 1462 1464 1466 1467 1468 1469 1469 1470 1472 1473 1473 1473 1473 1472 1472
1341 1342 1344 1346 1349 1352 1356 1361 1366 1371 1376 1381 1386 1393 1398 1404 1410 1415 1419 1422 1426 1430 1434 1438 1442 1446 1450 1453 1457 1459 1461 1462 1464 1465 1465 1466 1468 1469 1470 1470 1470 1469 1469
1341 1343 1345 1346 1348 1351 1354 1358 1362 1366 1371 1377 1382 1387 1393 1399 1403 1408 1412 1416 1420 1424 1428 1432 1435 1440 1446 1448 1450 1453 1455 1457 1459 1460 1461 1462 1464 1465 1466 1466 1467 1467 1467
1339 1341 1343 1345 1346 1349 1351 1353 1357 1361 1367 1372 1377 1382 1388 1392 1397 1401 1405 1408 1413 1418 1422 1425 1429 1434 1440 1442 1443 1445 1449 1452 1453 1455 1456 1457 1459 1460 1461 1463 1463 1464 1464
1335 1337 1339 1341 1343 1345 1348 1351 1354 1358 1362 1367 1373 1378 1384 1389 1392 1396 1400 1403 1407 1412 1416 1419 1423 1428 1433 1435 1436 1439 1442 1445 1448 1449 1451 1452 1454 1456 1457 1458 1459 1460 1460
1330 1332 1333 1334 1337 1340 1343 1346 1349 1353 1356 1361 1366 1371 1376 1381 1386 1390 1394 1397 1402 1406 1410 1414 1417 1421 1426 1429 1431 1433 1437 1439 1442 1444 1446 1447 1449 1451 1453 1454 1455 1456 1457
1325 1327 1328 1329 1331 1333 1336 1339 1343 1347 1351 1355 1359 1364 1368 1373 1379 1383 1388 1392 1396 1401 1404 1409 1412 1416 1420 1423 1425 1428 1431 1434 1436 1439 1441 1442 1444 1446 1448 1449 1450 1451 1452
1319 1320 1321 1322 1324 1327 1329 1332 1335 1339 1343 1348 1351 1356 1362 1367 1372 1376 1381 1385 1390 1394 1398 1402 1406 1410 1414 1417 1420 1423 1426 1429 1431 1434 1435 1437 1439 1442 1444 1445 1446 1447 1448
1314 1314 1315 1316 1317 1320 1322 1324 1327 1332 1335 1340 1345 1350 1355 1359 1364 1370 1374 1378 1382 1387 1392 1396 1400 1404 1408 1412 1415 1419 1422 1424 1427 1429 1431 1433 1435 1437 1439 1441 1442 1443 1444